Regional Weather Roundup
Issued by NWS

Home | Current Version | Previous Version | Graphics & Text | Print | Product List | Glossary Off
Versions: 1 2 3 4 5 6 7 8 9 10 11 12 13 14 15 16 17 18 19 20 21 22 23 24 25 26 27 28 29 30 31 32 33 34 35 36 37 38 39 40 41 42 43 44 45 46 47 48 49 50

010
ASUS43 KTOP 201359
RWRKS

WEATHER ROUNDUP FOR KANSAS
NATIONAL WEATHER SERVICE GOODLAND KS
800 AM CST TUE FEB 20 2018

NOTE:  "FAIR" INDICATES FEW OR NO CLOUDS BELOW 12,000 FEET WITH NO
SIGNIFICANT WEATHER AND/OR OBSTRUCTIONS TO VISIBILITY.

KSZ001>006-013>018-027>032-041>047-201500-
NORTHWEST KANSAS

CITY           SKY/WX    TMP DP  RH WIND       PRES   REMARKS
GOODLAND       CLEAR      1  -5  75 MISG      30.00R
HILL CITY      CLOUDY    12   3  67 N16       30.09R WCI  -5
RUSSELL        CLOUDY    17  11  77 NW22      30.05R WCI   0
$$

KSZ061>065-074>080-084>089-201500-
SOUTHWEST KANSAS

CITY           SKY/WX    TMP DP  RH WIND       PRES   REMARKS
DODGE CITY     CLOUDY    13   7  77 N21G29    30.02R WCI  -5
GARDEN CITY    CLOUDY     9   4  80 N12       30.03R WCI  -6
GREAT BEND     FLURRIES  15  12  88 NW16      30.06R WCI  -1
LIBERAL        FLURRIES  14  11  87 N16       30.03R WCI  -2
$$

KSZ066>073-081>083-090>101-201500-
SOUTHEAST KANSAS

CITY           SKY/WX    TMP DP  RH WIND       PRES   REMARKS
CHANUTE        FRZ RAIN  31  31 100 N13G22    29.88F FOG     WCI  21
COFFEYVILLE    RAIN      33  32  96 N15G31    29.88R FOG     WCI  23
HUTCHINSON     CLOUDY    19  17  92 N18G25    30.02R WCI   4
MEDICINE LODGE   N/A     19  17  92 N14G28    30.01R WCI   6
NEWTON         CLOUDY    19  18  95 N25       29.98R WCI   1
PARSONS        CLOUDY    32  31  96 N9G21     29.90  FOG
WICHITA INTL   CLOUDY    23  20  88 N25G33    29.97R WCI   7
WICHITA JABRA  MIX PCPN  21  20  96 N20G29    29.96R WCI   6
WICHITA MCCONL LGTSLEET  22  19  87 N10       29.95  WCI  12
WINFIELD       TSTM      30  30 100 N20G30    29.93R WCI  17
$$

KSZ007>012-019>026-033>040-048>060-102>105-201500-
NORTHEAST KANSAS

CITY           SKY/WX    TMP DP  RH WIND       PRES   REMARKS
CONCORDIA      CLOUDY    16  12  84 NW16G24   30.05R WCI   1
EMPORIA        MIX PCPN  28  26  92 N18G26    29.94R FOG     WCI  15
LAWRENCE       FRZ RAIN  29  27  92 NW15      29.97F FOG     WCI  18
MANHATTAN      CLOUDY    23  18  81 N9G17     30.03R
OLATHE IND     CLOUDY    30  29  96 N17G30    29.93R FOG     WCI  18
OLATHE EXE     FRZ RAIN  28  27  96 N16G32    29.90R FOG     WCI  16
SALINA         CLOUDY    20  17  88 NW23G30   30.05R WCI   3
TOPEKA BILLARD FRZ RAIN  29  28  96 NW10      29.99R FOG     WCI  20
TOPEKA FORBES  FRZ RAIN  30  28  92 N12       29.91F FOG     WCI  20
$$




USA.gov is the U.S. government's official web portal to all federal, state and local government web resources and services.